Wind_Speed
24 25 25 25 25 24 24 25 25 26 26 26 27 27 27 27 28 30 31 31 32 31 30 30 30 30 30 30 30 30 30 30 30 30 30 29 29 29
23 24 24 24 24 24 25 26 26 26 27 27 27 27 28 28 28 29 30 30 30 31 31 31 31 31 31 31 30 30 30 31 31 31 31 31 31 31
22 22 22 23 24 24 24 25 26 27 27 27 28 28 28 29 30 30 29 30 30 30 31 31 32 32 32 32 32 32 31 31 32 32 32 32 32 32
22 22 22 23 24 24 25 26 27 27 27 28 28 29 30 29 29 29 29 30 31 31 32 33 33 34 33 32 32 32 32 32 33 33 33 33 33 33
22 22 23 23 24 25 26 26 26 27 27 28 28 29 29 29 28 29 29 30 30 30 31 33 34 34 34 34 33 34 33 33 34 34 34 35 35 34
23 23 23 23 24 24 25 25 26 26 26 26 26 26 27 27 28 28 28 29 30 30 30 31 32 32 33 34 34 34 34 33 33 34 34 34 35 36
23 23 23 23 24 24 24 25 25 26 26 26 26 26 26 27 28 29 29 29 29 30 30 30 31 32 32 33 33 33 34 34 34 34 34 34 34 35
24 24 24 24 24 24 25 25 26 26 26 26 26 27 27 27 27 27 28 28 29 30 30 31 31 31 32 32 33 33 34 34 35 35 35 34 34 34
24 25 24 24 25 25 25 26 26 26 26 26 26 27 27 27 27 27 27 28 28 29 30 30 31 32 32 32 32 33 33 33 34 34 35 34 34 33
26 25 25 26 26 26 27 27 27 26 26 26 26 26 26 27 27 27 27 27 28 28 29 30 30 31 31 31 32 32 32 33 33 34 34 34 35 34
26 26 26 27 27 27 27 27 27 26 27 27 26 26 26 27 27 27 28 28 28 29 30 30 30 30 30 30 31 31 32 32 33 34 33 34 35 35
27 27 27 27 27 28 27 27 27 27 28 28 27 26 26 27 28 29 29 29 28 29 29 29 29 30 30 30 30 31 31 31 32 33 33 33 34 35
28 28 28 28 27 28 28 27 27 28 28 28 27 27 27 28 28 29 29 29 29 29 29 29 29 30 30 30 30 31 31 31 31 32 33 33 33 33
28 29 29 29 28 28 28 29 29 28 27 27 27 28 28 28 29 29 29 28 28 28 29 30 30 30 30 29 29 30 30 31 31 31 31 32 33 33
28 28 29 29 29 28 29 29 29 28 28 28 29 29 29 30 30 30 29 28 28 28 29 29 29 30 29 29 30 30 30 29 29 30 31 31 31 31
28 28 28 29 29 29 30 29 29 29 29 28 29 29 29 29 29 29 29 28 28 28 29 29 28 28 28 28 29 29 29 29 29 29 30 30 30 30
29 28 28 28 29 29 30 29 29 29 29 29 28 28 28 28 28 28 29 29 28 28 28 29 29 28 28 28 28 28 28 28 29 29 29 29 29 29
27 27 28 29 29 29 28 28 28 28 28 28 28 28 28 27 27 28 28 28 28 28 28 29 29 29 28 28 27 27 27 27 27 27 27 27 27 28
27 27 28 28 29 29 28 28 28 27 27 27 27 27 27 27 27 27 27 27 28 28 29 29 29 29 28 27 26 27 27 27 27 27 26 26 26 27
26 26 27 27 27 27 26 26 26 26 27 27 27 27 27 26 26 26 26 26 27 28 28 28 28 27 27 26 25 25 25 25 25 25 26 26 26 26
25 25 26 25 25 25 25 25 25 25 25 25 25 25 25 25 25 25 25 26 26 26 26 26 26 26 26 25 24 24 24 24 24 24 24 25 25 25
25 25 24 24 24 24 24 24 25 24 24 25 25 24 24 24 24 25 25 25 25 25 24 24 24 24 24 24 23 23 23 23 23 23 23 23 23 24
25 24 25 25 24 24 24 25 24 24 24 24 24 24 24 24 24 24 24 24 23 23 23 23 23 23 23 23 23 22 22 23 23 22 22 22 22 22
Wind_Direction
273 272 272 271 271 272 271 271 271 272 272 273 272 271 271 270 268 267 266 266 264 264 261 260 260 258 257 256 256 258 258 259 259 260 261 262 263 263
274 272 271 271 272 274 274 273 274 275 275 274 272 272 271 271 270 268 266 267 265 263 261 260 259 258 257 256 257 259 259 259 260 261 262 262 263 263
274 273 272 271 273 275 275 275 276 275 275 274 273 273 273 273 271 268 265 266 267 264 261 260 258 257 258 259 260 260 259 260 261 261 262 262 263 264
276 277 277 276 274 274 275 275 275 275 274 274 274 273 274 274 271 268 266 266 266 264 262 259 258 258 259 259 261 261 261 261 262 262 261 262 263 263
279 280 279 279 278 277 277 277 277 276 276 276 274 274 274 273 272 270 268 267 266 264 262 260 259 260 260 261 262 262 262 262 262 262 262 262 262 262
281 281 280 280 280 279 280 279 278 278 277 277 277 276 275 273 273 271 269 268 267 265 264 262 260 260 261 261 262 263 261 261 262 263 263 263 262 263
281 281 282 283 281 281 281 279 278 278 278 278 277 277 275 274 273 271 270 269 267 266 265 263 262 261 261 262 262 262 261 261 263 263 263 263 264 264
279 279 281 283 283 282 282 282 280 279 278 278 277 278 276 274 273 271 270 268 268 268 266 264 263 262 262 262 262 262 262 262 263 263 264 264 264 263
279 280 280 282 283 283 283 283 281 279 278 278 277 277 273 272 272 271 270 268 267 267 266 264 264 263 263 263 263 262 263 264 263 264 264 264 263 263
279 280 279 282 282 282 283 283 281 281 281 280 278 275 273 273 271 270 269 269 268 267 266 265 263 262 261 263 264 264 264 265 263 263 263 262 261 263
279 280 281 282 282 282 283 282 280 281 281 280 277 276 275 275 272 270 269 270 269 269 267 265 263 264 265 265 265 265 266 266 264 262 262 261 262 263
280 281 281 281 281 280 281 281 280 280 280 279 278 276 276 276 274 272 270 270 268 267 267 267 266 266 268 267 267 266 266 267 266 264 262 262 262 263
281 281 281 280 279 279 279 280 281 281 280 279 277 277 277 276 274 272 271 270 268 267 267 267 266 266 267 267 267 268 267 267 267 264 263 262 262 263
284 284 283 281 280 279 279 278 279 280 280 279 278 277 278 277 276 274 272 271 270 268 267 267 267 267 268 267 266 267 267 267 267 266 264 263 263 263
285 285 283 280 279 278 279 278 277 277 278 278 278 278 278 278 277 274 272 271 269 269 268 267 267 268 269 269 268 266 265 265 266 265 264 264 264 264
285 285 283 279 278 276 277 276 275 275 276 276 277 278 278 278 277 274 272 271 269 269 269 268 268 269 269 269 269 267 265 264 263 265 265 265 264 263
285 284 283 281 278 279 278 275 275 275 276 276 277 278 279 279 278 274 271 269 268 268 268 269 269 269 269 269 269 269 268 266 265 265 264 264 264 263
286 284 283 282 280 280 279 278 277 276 276 277 277 279 280 280 279 276 272 268 267 268 268 269 269 269 269 268 269 269 269 269 268 268 266 264 263 262
285 284 283 283 282 280 278 279 278 277 277 278 279 280 281 280 278 276 274 270 268 267 268 270 270 269 268 268 268 268 268 269 269 268 268 267 265 263
285 285 286 285 283 280 278 278 279 278 279 280 280 280 280 280 278 275 273 271 270 268 268 269 270 269 267 266 267 267 267 267 269 268 268 268 264 262
284 286 288 287 285 281 279 279 279 280 280 281 281 280 280 279 278 276 274 272 270 268 267 267 267 266 265 265 266 265 265 265 267 267 268 267 262 260
286 286 287 287 287 286 283 280 280 280 280 279 279 279 279 278 277 276 274 272 270 267 266 266 267 265 264 264 264 264 265 267 267 267 267 266 263 259
287 286 286 286 286 286 286 284 282 281 280 278 277 277 277 279 278 276 274 272 269 266 265 266 266 264 263 263 264 264 266 267 267 267 266 265 264 259
Height
5798 5797 5797 5797 5796 5796 5796 5796 5796 5795 5796 5795 5795 5794 5793 5792 5792 5792 5792 5792 5792 5792 5793 5793 5794 5795 5796 5797 5798 5799 5800 5800 5801 5801 5802 5802 5803 5804
5790 5790 5790 5789 5789 5789 5788 5788 5787 5787 5787 5787 5786 5785 5784 5783 5783 5782 5783 5783 5783 5783 5784 5785 5786 5787 5787 5788 5789 5790 5791 5792 5792 5793 5793 5794 5795 5795
5784 5783 5782 5782 5782 5781 5781 5780 5780 5779 5779 5778 5778 5777 5775 5775 5774 5773 5773 5774 5774 5774 5775 5776 5777 5778 5779 5780 5780 5781 5782 5783 5783 5784 5785 5785 5786 5786
5777 5776 5775 5775 5774 5774 5773 5772 5772 5771 5770 5770 5769 5768 5767 5766 5765 5764 5764 5764 5764 5765 5766 5766 5767 5768 5769 5770 5771 5772 5772 5773 5774 5774 5775 5776 5777 5777
5770 5769 5768 5767 5767 5766 5765 5764 5763 5762 5762 5761 5760 5759 5758 5757 5756 5755 5755 5755 5755 5755 5756 5757 5758 5759 5760 5761 5761 5762 5763 5764 5765 5765 5765 5766 5767 5767
5763 5762 5761 5760 5759 5758 5757 5756 5755 5754 5753 5752 5751 5750 5750 5749 5748 5747 5747 5746 5746 5746 5747 5747 5748 5749 5750 5751 5752 5753 5753 5754 5755 5755 5755 5756 5757 5757
5756 5755 5754 5752 5751 5750 5749 5748 5747 5746 5744 5743 5743 5742 5741 5740 5740 5739 5738 5738 5737 5737 5738 5738 5739 5740 5741 5741 5742 5743 5744 5745 5745 5746 5746 5746 5746 5747
5749 5747 5746 5745 5743 5742 5741 5739 5738 5737 5736 5735 5734 5733 5733 5732 5731 5730 5730 5730 5730 5730 5729 5730 5730 5731 5732 5732 5733 5733 5734 5735 5735 5736 5736 5736 5737 5737
5741 5740 5739 5737 5735 5734 5732 5731 5730 5729 5728 5727 5726 5725 5724 5723 5723 5722 5721 5721 5721 5721 5721 5721 5721 5722 5722 5723 5723 5724 5724 5724 5725 5726 5726 5727 5727 5727
5733 5731 5730 5729 5727 5726 5724 5723 5722 5721 5720 5719 5718 5717 5715 5714 5714 5713 5713 5712 5712 5712 5712 5712 5712 5713 5713 5713 5714 5714 5714 5715 5715 5716 5716 5717 5717 5717
5724 5723 5721 5720 5719 5717 5716 5715 5713 5712 5711 5710 5709 5708 5707 5706 5705 5705 5704 5704 5704 5704 5703 5703 5703 5704 5704 5704 5704 5704 5704 5704 5704 5705 5705 5706 5707 5707
5715 5714 5712 5711 5710 5708 5707 5706 5705 5704 5702 5701 5700 5699 5698 5697 5696 5695 5695 5695 5695 5695 5694 5694 5695 5695 5696 5695 5695 5695 5694 5694 5694 5694 5695 5695 5696 5696
5706 5705 5703 5702 5701 5699 5698 5697 5696 5695 5693 5692 5691 5690 5689 5688 5687 5686 5686 5686 5686 5686 5686 5686 5686 5686 5687 5687 5686 5685 5685 5685 5685 5685 5685 5685 5685 5686
5697 5695 5694 5692 5691 5690 5689 5688 5686 5685 5684 5683 5682 5681 5680 5679 5678 5677 5677 5676 5676 5677 5677 5677 5677 5677 5677 5677 5677 5677 5676 5676 5675 5675 5675 5675 5675 5675
5688 5686 5685 5683 5681 5680 5679 5678 5677 5676 5675 5674 5673 5672 5671 5670 5669 5668 5668 5668 5668 5668 5668 5667 5668 5668 5668 5668 5668 5668 5667 5667 5666 5666 5666 5666 5666 5666
5679 5677 5676 5674 5672 5671 5670 5669 5667 5666 5665 5665 5664 5663 5662 5661 5660 5659 5659 5659 5659 5659 5659 5659 5658 5659 5659 5659 5658 5658 5658 5658 5658 5657 5657 5657 5657 5657
5670 5668 5667 5665 5663 5662 5661 5659 5658 5657 5656 5655 5655 5654 5653 5652 5651 5650 5650 5650 5650 5650 5650 5650 5649 5649 5649 5649 5649 5649 5648 5648 5648 5648 5648 5648 5648 5648
5661 5659 5658 5656 5655 5653 5652 5650 5649 5648 5647 5646 5646 5645 5644 5643 5642 5641 5641 5641 5641 5641 5641 5640 5640 5640 5640 5640 5640 5640 5639 5640 5639 5639 5639 5639 5640 5640
5653 5651 5649 5648 5646 5644 5643 5642 5641 5639 5638 5638 5637 5636 5635 5634 5633 5633 5632 5631 5631 5632 5632 5631 5631 5631 5631 5632 5632 5631 5631 5631 5631 5631 5630 5631 5631 5632
5645 5643 5641 5639 5638 5636 5635 5633 5633 5632 5631 5630 5629 5628 5627 5626 5625 5624 5624 5623 5623 5623 5623 5622 5622 5622 5622 5623 5623 5623 5622 5622 5622 5622 5622 5622 5623 5623
5637 5635 5633 5631 5630 5628 5627 5626 5625 5624 5623 5621 5620 5619 5618 5618 5617 5616 5615 5614 5614 5614 5614 5614 5614 5614 5614 5614 5615 5615 5614 5614 5614 5614 5614 5614 5615 5615
5629 5627 5626 5624 5622 5621 5619 5618 5617 5616 5615 5614 5613 5612 5611 5610 5609 5608 5607 5606 5606 5606 5606 5606 5606 5605 5606 5607 5607 5607 5607 5607 5606 5606 5606 5607 5607 5608
5621 5620 5618 5617 5615 5613 5612 5610 5609 5608 5607 5606 5605 5604 5603 5602 5601 5600 5599 5598 5598 5597 5598 5598 5598 5598 5598 5599 5599 5599 5599 5599 5599 5599 5600 5599 5600 5600